Location: Weatherford
(35.5260°N, 98.7070°W)
Time: 22:07:40
(UTC-05:00)

OPAL - Visible Passes

Search period start: 29 June 2016 00:00
Search period end: 09 July 2016 00:00
Orbit: 744 x 795 km, 100.2° (Epoch: 29 June)

Date Brightness Start Highest point End Pass type
(mag) Time Alt. Az. Time Alt. Az. Time Alt. Az.
29 Jun 9.7 01:53:21 10° NE 01:55:34 16° E 01:55:34 16° E visible
29 Jun 7.9 03:30:45 10° N 03:35:39 48° WNW 03:35:51 48° WNW visible
30 Jun 7.6 02:55:12 10° NNE 02:59:54 69° ENE 02:59:54 69° ENE visible
30 Jun 9.6 04:36:30 10° NW 04:38:29 12° WNW 04:40:11 11° W visible
01 Jul 8.9 02:20:17 10° NE 02:23:57 29° E 02:23:57 29° E visible
01 Jul 8.7 03:59:16 10° N 04:03:29 27° WNW 04:04:14 26° W visible
02 Jul 9.9 01:46:47 10° ENE 01:47:59 12° E 01:47:59 12° E visible
02 Jul 7.6 03:23:16 10° N 03:28:16 61° WNW 03:28:16 61° WNW visible
03 Jul 8.0 02:47:53 10° NNE 02:52:19 54° ENE 02:52:19 54° ENE visible
03 Jul 9.4 04:28:22 10° NNW 04:31:13 15° WNW 04:32:37 14° W visible
04 Jul 9.2 02:13:12 10° NE 02:16:22 23° E 02:16:22 23° E visible
04 Jul 8.4 03:51:39 10° N 03:56:10 33° WNW 03:56:39 32° W visible
05 Jul 7.5 03:15:50 10° NNE 03:20:41 75° NW 03:20:41 75° NW visible
06 Jul 8.3 02:40:37 10° NNE 02:44:44 42° ENE 02:44:44 42° ENE visible
06 Jul 9.2 04:20:29 10° NNW 04:23:56 19° WNW 04:25:01 18° W visible
07 Jul 9.5 02:06:14 10° NE 02:08:46 18° E 02:08:46 18° E visible
07 Jul 8.1 03:44:06 10° N 03:48:49 41° WNW 03:49:03 40° WNW visible
08 Jul 7.5 03:08:26 10° NNE 03:13:05 75° NNE 03:13:05 75° NNE visible
08 Jul 9.7 04:51:06 10° NW 04:51:36 10° WNW 04:52:06 10° WNW visible
